Regional Weather Roundup
Issued by NWS

Home | Current Version | Previous Version | Text Only | Print | Product List | Glossary Off
Versions: 1 2 3 4 5 6 7 8 9 10 11 12 13 14 15 16 17 18 19 20 21 22 23 24 25 26 27 28 29 30 31 32 33 34 35 36 37 38 39 40 41 42 43 44 45 46 47 48 49 50

000
ASUS43 KFSD 152302
RWRSD

WEATHER ROUNDUP FOR SOUTH DAKOTA
NATIONAL WEATHER SERVICE SIOUX FALLS SD
600 PM CDT MON SEP 15 2014

NOTE: "FAIR" INDICATES FEW OR NO CLOUDS BELOW 12,000 FEET WITH NO
SIGNIFICANT WEATHER AND/OR OBSTRUCTIONS TO VISIBILITY.


SDZ001>005-009-010-012>017-160000-
NORTHWEST AND NORTH CENTRAL SOUTH DAKOTA

CITY           SKY/WX    TMP DP  RH WIND       PRES   REMARKS
FAITH            N/A     64  39  39 S15       30.16F
MOBRIDGE       SUNNY     64  38  38 SE10      30.16F
$$

SDZ012>016-024>037-041>051-057-063-072>074-160000-
SOUTHWEST AND SOUTH CENTRAL SOUTH DAKOTA

CITY           SKY/WX    TMP DP  RH WIND       PRES   REMARKS
RAPID CTY ARPT SUNNY     68  43  40 S20       30.15F
PIERRE         SUNNY     65  35  33 SE5       30.19F
CUSTER         SUNNY     62  39  42 SW8       30.23S
ELLSWORTH AFB  SUNNY     68  45  44 S14       30.14F
PHILIP         SUNNY     67  38  34 SE12      30.18F
PINE RIDGE     SUNNY     69  42  37 S12       30.18F
WINNER         FAIR      65  35  33 VRB3      30.23F
$$

SDZ004>011-016>023-039-040-160000-
NORTHEAST SOUTH DAKOTA

CITY           SKY/WX    TMP DP  RH WIND       PRES   REMARKS
ABERDEEN       SUNNY     63  35  35 W5        30.20F
WATERTOWN      SUNNY     59  33  37 W6        30.22S
SISSETON         N/A     64  35  34 NW9       30.20S
$$

SDZ017-020-022-023-036>040-048>070-160000-
SOUTHEAST SOUTH DAKOTA

CITY           SKY/WX    TMP DP  RH WIND       PRES   REMARKS
SIOUX FALLS    MOSUNNY   62  40  44 W3        30.23S
HURON          SUNNY     63  31  30 CALM      30.22F
CHAMBERLAIN    SUNNY     62  35  35 SE5       30.23S
MITCHELL       SUNNY     64  37  36 CALM      30.24S
YANKTON        SUNNY     63  39  42 CALM      30.24S
$$

ABBREVIATIONS USED IN REMARKS
   TC - TEMPERATURE IN CELSIUS
  WCI - WIND CHILL INDEX
   HX - HEAT INDEX
  VSB - VISIBILITY




USA.gov is the U.S. government's official web portal to all federal, state and local government web resources and services.